DECAYED

STARLINK-1491, 45778 (Decayed)

Orbit data source: Space-Track

STARLINK-1491, 45778 was a payload satellite owned by SpaceX/Seattle (US) in LEO that was launched on Sat, 13 Jun 2020 UTC via an FALCON 9 launch vehicle from the Air Force Eastern Test Range (AFETR). Payload-class satellites include a variety of spacecraft equipped with specific instruments for various scientific and technological missions. These include communications satellites like Starlink; space stations such as the ISS; scientific satellites like the Hubble; Earth observation satellites from companies like Planet Labs, Umbra, and HawkEye 360; GPS; miniature CubeSats for education and research; and military/defense satellites.

Not visible in the next 10 days
Identifier
45778, 2020-038BA
Orbit
Decayed
Country
Flag of USUS
Related business
Manufacturer
SpaceX/Seattle
Mission
Decayed Commercial Communications
Bus & Motor
STARLINK, Unknown motor
Mass
260 kg wet, ~248 kg dry
Launch date (UTC)
2020-06-13 (6 years ago)
Launch vehicle
FALCON 9
Launch site
Air Force Eastern Test Range (AFETR)
Object type
Payload
Rocket body
Debris
Shape & HBR
Box + 1 Pan, 10.1 m
Radar Cross Section
13.562 m², Large (>1 m²)

Expand to show TLE details & history
Last TLE update: 10 months ago

TLE from 10 months ago
0 STARLINK-1491
1 45778U 20038BA  25232.50701598  .04608378  12209-4  71847-3 0  9997
2 45778  53.0151 266.9533 0003094 357.1421 162.8131 16.33204928289112
Epoch: 2025-08-20T12:10Z
TLE epoch observation values (Epoch: 2025-08-20T12:10:06.180Z)
Latitude
15.9014°
Longitude
-76.97362°
Altitude
186.112 km
Speed
7.796 km/s
True Right ascension
04h 58m 32s
True Declination
15° 48' 11"
Sunlit
Object was in daylight at epoch
Visualization orbit readout
Latitude
Unknown
Longitude
Unknown
Altitude
Unknown
Speed
Unknown
Apparent Right ascension
Unknown
Apparent Declination
Unknown
Sunlit
N/A
Visualization observer readout
Local Sidereal Time
00:59:02
Azimuth
Unknown
Elevation
Unknown
Doppler factor
Unknown
Orbital elements
Apogee altitude
186.263 km
Perigee altitude
182.202 km
Semi-major axis
6,562.37 km
Eccentricity
0.00031
Inclination
53.0151°
RAAN
266.9533°
Arg. of periapsis
357.1421°
True anomaly
162.82357°
Mean anomaly
162.8131°
Eccentric anomaly
162.81834°
Mean motion
4.08274 °/min
Orbital period
88.18 mins
BSTAR
0.00071847
Loading maneuver chart data...
Computing Atmospheric mass density...

Documentation

Showing up to 5 results
|